AZERSPACE 2 (IS-38) (43632 NORAD) Tracking and Keplerian Element Data

This shows tracking and keplerian element data for the satellite.

Feedback or suggestion? Click here.




ElementValue
Catalog43632
NameAZERSPACE 2 (IS-38)
Epoch Orbit232
Epoch Day114.18878799
Epoch Year2019
RAAN229.363
Inclination0.0164
Eccentricity0.0001551
Argument of Perigee178.3406
Mean Anonmoly277.2812
Mean Motion1.00271324
Decay Rate1.22E-06
L11 43632U 18074A 19114.18878799 .00000122 00000-0 00000+0 0 9995
L22 43632 0.0164 229.3630 0001551 178.3406 277.2812 1.00271324 2323

Live tracking and technical data element details for AZERSPACE 2 (IS-38) (NORAD 43632). AZERSPACE 2 (IS-38) can be tracked NOW for your location showing map with azimuth and elevation plus other details from your city location.

Track the satellite on the map from your city or location and see movement details for azimuth, elevation, latitude, longitude, range, height, and movement on the map or in text.







IsCatalogInMostPopularTable: catalog: 43632, numindb: 120
Update: records affected: 1



GetName: 43632 AZERSPACE 2 (IS-38)

Hit Count: updated at: Thu, 25 Apr 2019 19:48:22 GMT